Content
SEND FEEDBACK

Daily
Averages
Monthly
Summary
United States of America

MANSFIELD, TEXAS


Home > North America > United States > Texas
Elevation: 580 feet     Latitude: 32 34N     Longitude: 097 09W

WEATHER
 
SELECT A DAY
Number of Records: 160,181;   Date Range: 10/8/98 - 9/28/14
 
SHARE

PRINT THIS DATA

[ ← Previous Day ]
WEATHER ALMANAC - JANUARY 31, 2013
[ Next Day → ]
[ °C ]   °F
Weather ElementAverageHighLow
Temperature49.1 °F66.9 °F (2:53 pm)28.9 °F (6:53 am)
Dewpoint24.6 °F30 °F (7:53 pm)19.9 °F (4:53 am)
Humidity44.6 %82 % (6:53 am)17 % (3:53 pm)
Barometer30.17 in30.31 in (11:53 pm)30.09 in (3:53 pm)
Wind Speed8.2 mph20.7 mph (9:53 pm)
Wind Gust27.6 mph (9:53 pm)
Weather ElementAverage
Visibility10 mi
Wind DirectionS (177.8 °)

Weather ElementTotal
Precipitation---
Heating Degree Days17.1 (Base 65)
Averaged from 23 records on January 31, 2013
WEATHER CONDITIONS BREAKOUT
WIND DIRECTION BREAKOUT
WEATHER BY HOUR - JANUARY 31, 2013
[ °C ]   °F
Local TimeTemperatureDewpointHumidityBarometerVisibilityWind DirectionWind SpeedGust SpeedPrecipitationEventsConditions
1:53 AM34.0 °F24.1 °F67 %30.14 in10.0 miSouth (180°)3.5 mphClear
2:53 AM35.1 °F23.0 °F61 %30.14 in10.0 miSouth (170°)4.6 mphClear
3:53 AM33.1 °F24.1 °F70 %30.14 in10.0 miSSE (160°)4.6 mphClear
4:53 AM37.9 °F19.9 °F48 %30.14 in10.0 miSouth (180°)4.6 mphClear
5:53 AM30.0 °F24.1 °F79 %30.14 in10.0 miSSE (160°)4.6 mphClear
6:53 AM28.9 °F24.1 °F82 %30.14 in10.0 miCalmClear
7:53 AM30.0 °F25.0 °F82 %30.18 in10.0 miSSE (160°)4.6 mphClear
8:53 AM37.0 °F26.1 °F65 %30.19 in10.0 miSouth (170°)4.6 mphClear
9:53 AM46.0 °F28.0 °F50 %30.20 in10.0 miSSE (160°)6.9 mphClear
10:53 AM55.9 °F26.1 °F32 %30.19 in10.0 miSouth (180°)8.1 mphClear
11:53 AM60.1 °F25.0 °F26 %30.18 in10.0 miSSW (200°)10.4 mphClear
12:53 PM63.0 °F21.9 °F21 %30.15 in10.0 miSW (230°)12.7 mph20.7 mphClear
1:53 PM66.0 °F21.0 °F18 %30.11 in10.0 miSW (230°)11.5 mph17.3 mphClear
2:53 PM66.9 °F21.9 °F18 %30.10 in10.0 miSSW (210°)17.3 mph24.2 mphClear
3:53 PM66.9 °F19.9 °F17 %30.09 in10.0 miWSW (240°)12.7 mph26.5 mphClear
4:53 PM66.9 °F21.0 °F17 %30.09 in10.0 miSW (220°)11.5 mphClear
5:53 PM64.9 °F21.0 °F19 %30.14 in10.0 miSW (230°)5.8 mphClear
6:53 PM55.0 °F26.1 °F33 %30.15 in10.0 miCalmClear
7:53 PM48.0 °F30.0 °F50 %30.19 in10.0 miWest (270°)3.5 mphClear
8:53 PM54.0 °F28.9 °F38 %30.22 in10.0 miNNW (340°)10.4 mphClear
9:53 PM55.9 °F28.0 °F34 %30.23 in10.0 miNorth (360°)20.7 mph27.6 mphClear
10:53 PM48.9 °F28.9 °F46 %30.28 in10.0 miNNE (20°)13.8 mphClear
11:53 PM45.0 °F28.0 °F52 %30.31 in10.0 miNNE (20°)12.7 mph20.7 mphClear
Hourly data recorded from KGKY, located miles away from Mansfield, Texas







STORIES FROM OUR PARTNERS